Kezdőlap
METAR-TAF:

METAR-TAF

Repülőterek :

Dalcahue, Chile

földrajzi szélesség: 42-20-25S, földrajzi hosszúság: 073-42-56W, magasság: 161 m

Jelenlegi meteorológiai megfigyelések

A jelentés 16 perccel ezelõtt készült, 17:00 UTC
Dél-délkeleti szél 11 kt
Hőmérséklet 8°C
Páratartalom 71%
Légköri nyomás 1034 hPa
Látótávolság 10 km, vagy több
Kevés felhő 2000 lábon

METAR: SCPQ 191700Z 16011KT 9999 FEW020 08/03 Q1034

Idő: 14:16 (17:16 UTC)


TAF: hiányzik

Meteorológiai megfigyelések és előrejelzések több, mint 4000 repülőtéren (METAR és TAF jelentéseket).

A térképen piros és sárga pontok jelzik az elérhető meteorológiai állomásokat.

Mozgassa az egeret a pont fölött, hogy megjelenjen az állomás neve.

Azután kattintson az időjárási megfigyelések és előrejelzések megtekintéséhez.

A térkép megváltoztatása: kattintson a fekete keresztel jelölt zöld gombra ráközelítéshez, a vonallal jelölt zöld gombra távolításhoz, vagy a zöld nyilakra a szomszédos térképek eléréséhez.


METAR-TAF: